Wetterstation Vordersexau
Wetterdaten: Februar 2014
Datum Temp. A. Feuchte A. Luftdruck Regen Wind Richtung Taupunkt Windchill Windben
01.02.2014 3,2 C 81 % 976,2 hPa 3,1 l/m 5,2 km/h O-SO 0,2 C 1,5 C 2,9 km/h
02.02.2014 4,7 C 85 % 990,2 hPa 5,4 l/m 0,7 km/h O-SO 2,3 C 4,4 C 0,4 km/h
03.02.2014 1,7 C 84 % 981,7 hPa 0,0 l/m 0,1 km/h W-NW -0,8 C 1,7 C 0,1 km/h
04.02.2014 3,3 C 85 % 987,9 hPa 0,0 l/m 0,6 km/h SO 0,9 C 3,2 C 0,3 km/h
05.02.2014 3,2 C 82 % 973,9 hPa 1,6 l/m 5,4 km/h N-NO 0,5 C 1,5 C 3,9 km/h
06.02.2014 9,6 C 63 % 977,9 hPa 0,0 l/m 8,0 km/h W-SW 2,6 C 7,5 C 5,7 km/h
07.02.2014 7,4 C 76 % 974,1 hPa 1,6 l/m 16,8 km/h S-SW 3,3 C 2,1 C 10,0 km/h
08.02.2014 6,5 C 73 % 976,3 hPa 3,1 l/m 8,9 km/h S-SO 1,9 C 3,8 C 5,8 km/h
09.02.2014 5,4 C 68 % 972,3 hPa 15,2 l/m 14,5 km/h SW -0,1 C 0,6 C 11,0 km/h
10.02.2014 3,4 C 79 % 968,5 hPa 0,6 l/m 1,7 km/h O-SO 0,1 C 3,0 C 1,5 km/h
11.02.2014 5,4 C 78 % 977,6 hPa 0,2 l/m 8,0 km/h SW 1,6 C 2,7 C 4,8 km/h
12.02.2014 5,0 C 77 % 980,4 hPa 0,0 l/m 5,3 km/h W-SW 0,9 C 3,4 C 2,9 km/h
13.02.2014 6,8 C 80 % 973,1 hPa 3,0 l/m 17,3 km/h SW 3,5 C 1,0 C 11,5 km/h
14.02.2014 6,6 C 76 % 979,1 hPa 0,0 l/m 6,8 km/h SO 2,5 C 4,7 C 4,6 km/h
15.02.2014 7,8 C 84 % 976,4 hPa 4,7 l/m 8,2 km/h W 5,2 C 5,5 C 4,9 km/h
16.02.2014 6,4 C 79 % 988,3 hPa 0,2 l/m 12,8 km/h S-SW 3,0 C 2,3 C 7,6 km/h
17.02.2014 7,5 C 71 % 986,2 hPa 0,0 l/m 0,4 km/h O-SO 1,9 C 7,5 C 0,3 km/h
18.02.2014 6,2 C 74 % 988,1 hPa 0,0 l/m 0,0 km/h O-NO 1,6 C 6,2 C 0,0 km/h
19.02.2014 6,8 C 81 % 986,6 hPa 0,8 l/m 1,2 km/h O-SO 3,7 C 6,6 C 0,7 km/h
20.02.2014 9,0 C 73 % 984,9 hPa 0,3 l/m 3,7 km/h O-SO 4,0 C 8,3 C 2,1 km/h
21.02.2014 7,5 C 79 % 982,3 hPa 1,2 l/m 11,4 km/h W-SW 4,1 C 4,1 C 6,7 km/h
22.02.2014 5,4 C 79 % 988,3 hPa 0,9 l/m 7,0 km/h O-SO 1,8 C 3,4 C 3,9 km/h
23.02.2014 8,2 C 73 % 992,2 hPa 0,0 l/m 0,9 km/h O-SO 3,1 C 8,1 C 0,5 km/h
24.02.2014 7,3 C 70 % 987,5 hPa 0,0 l/m 2,4 km/h O-SO 1,3 C 6,8 C 1,3 km/h
25.02.2014 8,9 C 67 % 985,1 hPa 0,0 l/m 3,5 km/h W 2,8 C 8,2 C 2,5 km/h
26.02.2014 7,0 C 82 % 996,5 hPa 2,2 l/m 0,7 km/h N 4,2 C 7,0 C 0,6 km/h
27.02.2014 7,3 C 74 % 988,6 hPa 1,2 l/m 7,8 km/h SO 2,7 C 5,0 C 5,1 km/h
28.02.2014 7,8 C 74 % 977,0 hPa 0,5 l/m 11,9 km/h W-SW 3,2 C 4,3 C 7,5 km/h
Min-Datum 01.02.14 24.02.14 10.02.14 18 Tage 01.02.14 - 01.02.14 14.02.14 01.02.14
Min-Zeit 06:19 16:19 13:19 - 00:19 - 06:19 06:19 00:19
Minimum -2,4 C 32 % 961,4 hPa - 0,0 km/h - -4,1 C -7,4 C 0,0 km/h
Max-Datum 24.02.14 01.02.14 26.02.14 09.02.14 07.02.14 - 23.02.14 24.02.14 09.02.14
Max-Zeit 16:19 00:19 20:19 19:19 10:19 - 11:19 16:19 00:19
Maximum 24,2 C 88 % 1018,2 hPa 15,2 l/m 50,5 km/h
S-SW
- 9,2 C 24,2 C 31,7 km/h
SW
Durchschnitt 6,3 C 77 % 982,0 hPa #45,7 l/m 6,1 km/h O-SO 2,2 C 4,4 C 3,9 km/h

Durchschnitt Minimum Temp.1,4 C
Durchschnitt Maximum Temp.13,1 C
www.sexauwetter.de